Погода в Лагуна Бич

США     33°32′14″N   117°46′11″W
темп.,
°C
ветер,
м/с
пор.,
м/с
влажн.,
%
обл.,
%
осадки,
мм/ч
давл.,
гПа
погр.,
м
21 октября, чт
чт2123:00+17з337068 0.0 1018192
02:00+16сз227240 0.0 1018174
05:00+16зсз227228 0.0 1018137
08:00+16ююз117676 0.0 1019109
11:00+17зюз117287 0.0 1019175
14:00+18з336997 0.0 1017237
17:00+18з447026 0.0 1016230
20:00+17зсз227799 0.0 1018179
22 октября, пт
пт2223:00+17з228232 0.0 1017168
02:00+16зсз22860 0.0 1016181
05:00+16всв11855 0.0 101575
08:00+16зюз2286100 0.0 1016169
11:00+18юз11800 0.0 1016202
14:00+17з338016 0.0 1014328
17:00+17з348314 0.0 1013323
20:00+17з349059 0.0 1014342
23 октября, сб
сб2323:00+17зюз2290100 0.1 1013341
02:00+17юз3384100 0.1 1012376
05:00+16зюз448064 0.1 1011465
08:00+16ююз3473100 0.0 1012647
11:00+16ююв457391 0.1 1012703
14:00+17ююв557544 0.0 1010555
17:00+16ююз337411 0.0 1010528
20:00+16ююв337725 0.0 1011438
24 октября, вс
вс2423:00+16юв457997 0.0 1011464
02:00+16юв56805 0.0 1011493
05:00+16юв567714 0.0 1011525
08:00+16юв33747 0.0 1013449
11:00+18ю326880 0.0 1013567
14:00+17ююз3270100 0.0 1012413
17:00+17зюз227267 0.0 1012297
20:00+17зсз22775 0.0 1013231
25 октября, пн
пн2523:00+17зюз117757 0.0 1013171
02:00+16сз228342 0.0 1013277
05:00+16зсз12855 0.0 1013235
08:00+16ююв23853 0.0 1014332
11:00+17ююв5683100 0.0 1014585
14:00+17ю5792100 1.6 1013537
17:00+17з559442 3.0 1013391
20:00+16зсз45852 0.1 1015481